Time,TemperatureF,DewpointF,PressureIn,WindDirection,WindDirectionDegrees,WindSpeedMPH,WindSpeedGustMPH,Humidity,HourlyPrecipIn,Conditions,Clouds,dailyrainin,SoftwareType,DateUTC
2013-06-26 00:00:00,74.7,74.7,29.81,West,267,4.5,5.3,100,0.00,,,0.00,VWS V13.01,2013-06-26 05:00:00,
2013-06-26 00:01:00,70.2,70.2,29.88,East,98,5.0,7.1,100,0.00,,,0.00,VWS V13.01,2013-06-26 05:01:00,
2013-06-26 00:06:00,70.2,70.2,29.88,SE,132,5.1,7.1,100,0.00,,,0.00,VWS V13.01,2013-06-26 05:06:00,
2013-06-26 00:11:00,70.4,70.4,29.88,SE,143,6.5,6.5,100,0.00,,,0.00,VWS V13.01,2013-06-26 05:11:00,
2013-06-26 00:16:00,69.9,69.9,29.87,ESE,122,6.0,9.7,100,0.00,,,0.00,VWS V13.01,2013-06-26 05:16:00,
2013-06-26 00:21:00,70.3,70.3,29.87,SE,138,7.1,7.4,100,0.00,,,0.00,VWS V13.01,2013-06-26 05:21:00,
2013-06-26 00:26:00,70.1,70.1,29.87,SSE,150,6.3,8.9,100,0.00,,,0.00,VWS V13.01,2013-06-26 05:26:00,
2013-06-26 00:31:00,70.4,70.4,29.87,SE,141,5.7,8.8,100,0.00,,,0.00,VWS V13.01,2013-06-26 05:31:00,
2013-06-26 00:36:00,70.8,70.8,29.87,SE,132,7.8,8.3,100,0.00,,,0.00,VWS V13.01,2013-06-26 05:36:00,
2013-06-26 00:41:00,70.9,70.9,29.87,South,184,8.0,9.4,100,0.00,,,0.00,VWS V13.01,2013-06-26 05:41:00,
2013-06-26 00:46:00,70.7,70.7,29.86,SE,143,7.2,9.0,100,0.00,,,0.00,VWS V13.01,2013-06-26 05:46:00,
2013-06-26 00:51:00,71.1,71.1,29.86,SE,146,7.0,11.5,100,0.00,,,0.00,VWS V13.01,2013-06-26 05:51:00,
2013-06-26 00:56:00,71.8,71.8,29.86,ESE,121,6.6,9.5,100,0.00,,,0.00,VWS V13.01,2013-06-26 05:56:00,
2013-06-26 01:01:00,71.6,71.6,29.86,SE,129,5.7,6.5,100,0.00,,,0.00,VWS V13.01,2013-06-26 06:01:00,
2013-06-26 01:06:00,71.5,71.5,29.85,SE,138,7.7,10.1,100,0.00,,,0.00,VWS V13.01,2013-06-26 06:06:00,
2013-06-26 01:11:00,71.5,71.5,29.85,ESE,120,8.9,10.6,100,0.00,,,0.00,VWS V13.01,2013-06-26 06:11:00,
2013-06-26 01:16:00,71.7,71.7,29.85,SE,124,6.6,15.2,100,0.00,,,0.00,VWS V13.01,2013-06-26 06:16:00,
2013-06-26 01:21:00,71.7,71.7,29.85,SE,134,5.3,10.7,100,0.00,,,0.00,VWS V13.01,2013-06-26 06:21:00,
2013-06-26 01:26:00,71.5,71.5,29.85,SE,143,7.6,8.5,100,0.00,,,0.00,VWS V13.01,2013-06-26 06:26:00,
2013-06-26 01:31:00,71.3,71.3,29.84,SE,142,7.8,9.6,100,0.00,,,0.00,VWS V13.01,2013-06-26 06:31:00,
2013-06-26 01:36:00,71.4,71.4,29.84,SE,129,5.9,8.7,100,0.00,,,0.00,VWS V13.01,2013-06-26 06:36:00,
2013-06-26 01:41:00,71.4,71.4,29.84,SE,138,7.1,8.3,100,0.00,,,0.00,VWS V13.01,2013-06-26 06:41:00,
2013-06-26 01:46:00,71.0,71.0,29.84,SE,124,5.7,8.1,100,0.00,,,0.00,VWS V13.01,2013-06-26 06:46:00,
2013-06-26 01:51:00,70.9,70.9,29.84,SSE,153,5.2,8.5,100,0.00,,,0.00,VWS V13.01,2013-06-26 06:51:00,
2013-06-26 01:56:00,70.9,70.9,29.84,SSE,160,6.5,7.6,100,0.00,,,0.00,VWS V13.01,2013-06-26 06:56:00,
2013-06-26 02:01:00,70.8,70.8,29.84,SE,125,7.5,9.8,100,0.00,,,0.00,VWS V13.01,2013-06-26 07:01:00,
2013-06-26 02:06:00,71.0,71.0,29.83,SE,143,5.3,8.1,100,0.00,,,0.00,VWS V13.01,2013-06-26 07:06:00,
2013-06-26 02:11:00,71.1,71.1,29.83,SSE,162,4.3,7.1,100,0.00,,,0.00,VWS V13.01,2013-06-26 07:11:00,
2013-06-26 02:16:00,70.7,70.7,29.83,SE,132,6.0,9.6,100,0.00,,,0.00,VWS V13.01,2013-06-26 07:16:00,
2013-06-26 02:21:00,70.7,70.7,29.83,SE,142,3.7,8.5,100,0.00,,,0.00,VWS V13.01,2013-06-26 07:21:00,
2013-06-26 02:26:00,70.9,70.9,29.83,SE,138,6.5,9.3,100,0.00,,,0.00,VWS V13.01,2013-06-26 07:26:00,
2013-06-26 02:31:00,71.0,71.0,29.83,SSE,167,4.3,7.8,100,0.00,,,0.00,VWS V13.01,2013-06-26 07:31:00,
2013-06-26 02:36:00,71.3,71.3,29.83,SSE,153,7.5,7.6,100,0.00,,,0.00,VWS V13.01,2013-06-26 07:36:00,
2013-06-26 02:41:00,71.3,71.3,29.83,ESE,122,5.5,6.8,100,0.00,,,0.00,VWS V13.01,2013-06-26 07:41:00,
2013-06-26 02:46:00,70.9,70.9,29.83,SE,141,6.2,6.9,100,0.00,,,0.00,VWS V13.01,2013-06-26 07:46:00,
2013-06-26 02:51:00,71.2,71.2,29.83,SSE,160,5.0,7.3,100,0.00,,,0.00,VWS V13.01,2013-06-26 07:51:00,
2013-06-26 02:56:00,71.3,71.3,29.82,SSE,155,3.5,6.5,100,0.00,,,0.00,VWS V13.01,2013-06-26 07:56:00,
2013-06-26 03:01:00,71.3,71.3,29.82,SE,138,4.4,6.3,100,0.00,,,0.01,VWS V13.01,2013-06-26 08:01:00,
2013-06-26 03:06:00,71.4,71.4,29.82,SE,142,6.6,7.8,100,0.00,,,0.01,VWS V13.01,2013-06-26 08:06:00,
2013-06-26 03:11:00,71.5,71.5,29.82,SE,138,8.5,9.1,100,0.00,,,0.01,VWS V13.01,2013-06-26 08:11:00,
2013-06-26 03:16:00,71.3,71.3,29.82,SSE,158,7.7,11.1,100,0.00,,,0.01,VWS V13.01,2013-06-26 08:16:00,
2013-06-26 03:21:00,71.3,71.3,29.82,SSE,150,5.5,8.3,100,0.00,,,0.01,VWS V13.01,2013-06-26 08:21:00,
2013-06-26 03:26:00,71.2,71.2,29.82,South,172,8.0,12.2,100,0.00,,,0.01,VWS V13.01,2013-06-26 08:26:00,
2013-06-26 03:31:00,71.5,71.5,29.80,South,172,5.6,10.4,100,0.00,,,0.01,VWS V13.01,2013-06-26 08:31:00,
2013-06-26 03:36:00,71.7,71.7,29.80,SE,134,9.6,11.6,100,0.00,,,0.01,VWS V13.01,2013-06-26 08:36:00,
2013-06-26 03:41:00,71.5,71.5,29.80,SSE,165,7.9,10.3,100,0.00,,,0.01,VWS V13.01,2013-06-26 08:41:00,
2013-06-26 03:46:00,71.5,71.5,29.80,SSE,153,9.1,12.9,100,0.00,,,0.01,VWS V13.01,2013-06-26 08:46:00,
2013-06-26 03:51:00,71.7,71.7,29.80,South,174,10.7,12.7,100,0.00,,,0.01,VWS V13.01,2013-06-26 08:51:00,
2013-06-26 03:56:00,71.6,71.6,29.80,South,180,11.2,13.0,100,0.00,,,0.01,VWS V13.01,2013-06-26 08:56:00,
2013-06-26 04:01:00,71.9,71.9,29.79,SE,143,8.8,11.9,100,0.00,,,0.01,VWS V13.01,2013-06-26 09:01:00,
2013-06-26 04:06:00,71.8,71.8,29.80,SSE,149,11.1,12.9,100,0.00,,,0.01,VWS V13.01,2013-06-26 09:06:00,
2013-06-26 04:11:00,72.4,72.4,29.80,SSE,153,9.8,9.8,100,0.00,,,0.01,VWS V13.01,2013-06-26 09:11:00,
2013-06-26 04:16:00,72.2,72.2,29.80,South,177,9.1,11.8,100,0.00,,,0.01,VWS V13.01,2013-06-26 09:16:00,
2013-06-26 04:21:00,72.4,72.4,29.80,SSE,165,10.3,10.9,100,0.00,,,0.01,VWS V13.01,2013-06-26 09:21:00,
2013-06-26 04:26:00,72.4,72.4,29.80,SSE,150,9.7,10.9,100,0.00,,,0.01,VWS V13.01,2013-06-26 09:26:00,
2013-06-26 04:31:00,72.1,72.1,29.80,SSE,160,10.9,18.8,100,0.00,,,0.01,VWS V13.01,2013-06-26 09:31:00,
2013-06-26 04:36:00,72.4,72.4,29.81,South,170,10.2,13.0,100,0.00,,,0.01,VWS V13.01,2013-06-26 09:36:00,
2013-06-26 04:41:00,72.3,72.3,29.81,South,183,8.9,13.0,100,0.00,,,0.01,VWS V13.01,2013-06-26 09:41:00,
2013-06-26 04:46:00,72.4,72.4,29.81,SSE,165,10.9,12.9,100,0.00,,,0.01,VWS V13.01,2013-06-26 09:46:00,
2013-06-26 04:51:00,72.3,72.3,29.81,SE,138,10.1,10.3,100,0.00,,,0.01,VWS V13.01,2013-06-26 09:51:00,
2013-06-26 04:56:00,72.5,72.5,29.80,SE,143,8.6,13.5,100,0.00,,,0.01,VWS V13.01,2013-06-26 09:56:00,
2013-06-26 05:01:00,72.3,72.3,29.80,SSW,202,8.0,11.2,100,0.00,,,0.01,VWS V13.01,2013-06-26 10:01:00,
2013-06-26 05:06:00,72.5,72.5,29.80,SE,128,9.7,11.6,100,0.00,,,0.01,VWS V13.01,2013-06-26 10:06:00,
2013-06-26 05:11:00,72.4,72.4,29.80,SSE,149,8.4,13.0,100,0.00,,,0.01,VWS V13.01,2013-06-26 10:11:00,
2013-06-26 05:16:00,72.7,72.7,29.80,SE,128,6.2,12.0,100,0.00,,,0.01,VWS V13.01,2013-06-26 10:16:00,
2013-06-26 05:21:00,72.6,72.6,29.80,South,172,8.9,11.2,100,0.00,,,0.01,VWS V13.01,2013-06-26 10:21:00,
2013-06-26 05:26:00,72.8,72.8,29.80,SE,143,6.8,9.1,100,0.00,,,0.01,VWS V13.01,2013-06-26 10:26:00,
2013-06-26 05:31:00,72.7,72.7,29.80,SE,129,6.9,10.1,100,0.00,,,0.01,VWS V13.01,2013-06-26 10:31:00,
2013-06-26 05:36:00,72.3,72.3,29.79,SSE,155,10.7,11.6,100,0.00,,,0.01,VWS V13.01,2013-06-26 10:36:00,
2013-06-26 05:41:00,72.5,72.5,29.80,ESE,118,5.4,9.3,100,0.00,,,0.01,VWS V13.01,2013-06-26 10:41:00,
2013-06-26 05:46:00,72.5,72.5,29.79,SSE,149,7.6,13.0,100,0.00,,,0.01,VWS V13.01,2013-06-26 10:46:00,
2013-06-26 05:51:00,72.8,72.8,29.80,SSE,152,7.7,9.7,100,0.00,,,0.01,VWS V13.01,2013-06-26 10:51:00,
2013-06-26 05:56:00,72.8,72.8,29.79,SSE,149,7.8,9.9,100,0.00,,,0.01,VWS V13.01,2013-06-26 10:56:00,
2013-06-26 06:01:00,73.3,73.3,29.79,SE,143,8.5,12.7,100,0.00,,,0.01,VWS V13.01,2013-06-26 11:01:00,
2013-06-26 06:06:00,72.9,72.9,29.80,SSE,159,8.6,9.3,100,0.00,,,0.01,VWS V13.01,2013-06-26 11:06:00,
2013-06-26 06:11:00,72.8,72.8,29.80,SSE,159,5.1,10.7,100,0.00,,,0.01,VWS V13.01,2013-06-26 11:11:00,
2013-06-26 06:16:00,73.2,73.2,29.80,SSE,150,6.8,8.9,100,0.00,,,0.01,VWS V13.01,2013-06-26 11:16:00,
2013-06-26 06:21:00,72.8,72.8,29.80,SE,134,8.2,10.3,100,0.00,,,0.01,VWS V13.01,2013-06-26 11:21:00,
2013-06-26 06:26:00,73.0,73.0,29.80,South,181,6.5,7.8,100,0.00,,,0.01,VWS V13.01,2013-06-26 11:26:00,
2013-06-26 06:31:00,72.8,72.8,29.81,SSE,159,4.3,7.6,100,0.00,,,0.01,VWS V13.01,2013-06-26 11:31:00,
2013-06-26 06:36:00,73.1,73.1,29.81,South,188,5.8,8.0,100,0.00,,,0.01,VWS V13.01,2013-06-26 11:36:00,
2013-06-26 06:41:00,73.1,73.1,29.81,South,174,6.1,7.4,100,0.00,,,0.01,VWS V13.01,2013-06-26 11:41:00,
2013-06-26 06:46:00,73.3,73.3,29.81,South,180,5.6,6.6,100,0.00,,,0.01,VWS V13.01,2013-06-26 11:46:00,
2013-06-26 06:51:00,73.1,73.1,29.81,SSW,205,4.8,5.4,100,0.00,,,0.01,VWS V13.01,2013-06-26 11:51:00,
2013-06-26 06:56:00,73.6,73.6,29.81,SSE,163,4.4,6.3,100,0.00,,,0.01,VWS V13.01,2013-06-26 11:56:00,
2013-06-26 07:01:00,73.4,73.4,29.81,South,188,3.8,5.2,100,0.00,,,0.01,VWS V13.01,2013-06-26 12:01:00,
2013-06-26 07:06:00,73.7,73.7,29.81,South,183,5.8,7.3,100,0.00,,,0.01,VWS V13.01,2013-06-26 12:06:00,
2013-06-26 07:11:00,73.6,73.6,29.82,SSW,194,5.2,5.2,100,0.00,,,0.01,VWS V13.01,2013-06-26 12:11:00,
2013-06-26 07:16:00,73.9,73.9,29.83,SSW,205,5.5,5.8,100,0.00,,,0.01,VWS V13.01,2013-06-26 12:16:00,
2013-06-26 07:21:00,73.8,73.8,29.82,SSW,202,4.8,5.6,100,0.00,,,0.01,VWS V13.01,2013-06-26 12:21:00,
2013-06-26 07:26:00,73.4,73.4,29.82,South,184,7.4,7.4,100,0.00,,,0.01,VWS V13.01,2013-06-26 12:26:00,
2013-06-26 07:31:00,73.7,73.7,29.83,SSW,201,6.0,7.7,100,0.00,,,0.01,VWS V13.01,2013-06-26 12:31:00,
2013-06-26 07:36:00,73.8,73.8,29.84,SW,221,10.7,11.7,100,0.00,,,0.01,VWS V13.01,2013-06-26 12:36:00,
2013-06-26 07:41:00,73.9,73.9,29.86,WSW,246,15.5,18.0,100,0.00,,,0.01,VWS V13.01,2013-06-26 12:41:00,
2013-06-26 07:46:00,74.2,74.2,29.87,West,281,18.8,23.4,100,0.00,,,0.01,VWS V13.01,2013-06-26 12:46:00,
2013-06-26 07:51:00,72.7,71.8,29.86,WNW,288,24.5,29.1,97,0.00,,,0.01,VWS V13.01,2013-06-26 12:51:00,
2013-06-26 07:56:00,71.7,70.8,29.83,NW,315,18.0,21.1,97,0.00,,,0.01,VWS V13.01,2013-06-26 12:56:00,
2013-06-26 08:01:00,71.0,70.1,29.82,NW,312,11.9,15.3,97,0.00,,,0.01,VWS V13.01,2013-06-26 13:01:00,
2013-06-26 08:06:00,70.5,69.9,29.80,NE,41,0.9,1.9,98,0.00,,,0.01,VWS V13.01,2013-06-26 13:06:00,
2013-06-26 08:11:00,69.9,69.5,29.80,NNE,32,4.8,6.9,99,0.00,,,0.01,VWS V13.01,2013-06-26 13:11:00,
2013-06-26 08:16:00,70.0,69.7,29.80,NE,34,3.0,4.7,99,0.00,,,0.01,VWS V13.01,2013-06-26 13:16:00,
2013-06-26 08:21:00,69.7,69.3,29.79,NE,53,4.7,4.7,98,0.00,,,0.01,VWS V13.01,2013-06-26 13:21:00,
2013-06-26 08:26:00,69.8,69.4,29.79,East,98,0.0,0.0,99,0.00,,,0.01,VWS V13.01,2013-06-26 13:26:00,
2013-06-26 08:31:00,69.6,69.4,29.79,East,84,3.1,3.1,99,0.00,,,0.01,VWS V13.01,2013-06-26 13:31:00,
2013-06-26 08:36:00,69.1,69.1,29.77,ENE,58,4.3,4.9,100,0.00,,,0.02,VWS V13.01,2013-06-26 13:36:00,
2013-06-26 08:41:00,68.4,68.4,29.77,NNE,27,4.3,6.1,100,0.00,,,0.02,VWS V13.01,2013-06-26 13:41:00,
2013-06-26 08:46:00,68.4,68.4,29.79,ESE,103,3.1,3.3,100,0.00,,,0.02,VWS V13.01,2013-06-26 13:46:00,
2013-06-26 08:51:00,68.6,68.6,29.80,SSW,195,7.1,8.6,100,0.00,,,0.02,VWS V13.01,2013-06-26 13:51:00,
2013-06-26 08:56:00,68.4,68.4,29.81,South,181,10.4,12.9,100,0.00,,,0.02,VWS V13.01,2013-06-26 13:56:00,
2013-06-26 09:01:00,68.9,68.9,29.82,South,190,9.0,9.9,100,0.00,,,0.02,VWS V13.01,2013-06-26 14:01:00,
2013-06-26 09:06:00,69.4,69.4,29.83,SSW,212,7.6,9.8,100,0.00,,,0.02,VWS V13.01,2013-06-26 14:06:00,
2013-06-26 09:11:00,69.5,69.5,29.82,SSW,193,8.4,10.6,100,0.00,,,0.02,VWS V13.01,2013-06-26 14:11:00,
2013-06-26 09:16:00,69.5,69.5,29.83,SSW,194,8.1,8.1,100,0.00,,,0.02,VWS V13.01,2013-06-26 14:16:00,
2013-06-26 09:21:00,69.6,69.6,29.82,South,172,6.0,9.9,100,0.00,,,0.02,VWS V13.01,2013-06-26 14:21:00,
2013-06-26 09:26:00,69.5,69.5,29.82,South,169,4.1,5.8,100,0.00,,,0.02,VWS V13.01,2013-06-26 14:26:00,
2013-06-26 09:31:00,69.9,69.9,29.82,SSE,163,2.7,3.8,100,0.00,,,0.02,VWS V13.01,2013-06-26 14:31:00,
2013-06-26 09:36:00,69.9,69.9,29.82,SE,135,3.3,5.8,100,0.00,,,0.02,VWS V13.01,2013-06-26 14:36:00,
2013-06-26 09:41:00,69.9,69.9,29.80,SSE,153,5.5,5.8,100,0.00,,,0.02,VWS V13.01,2013-06-26 14:41:00,
2013-06-26 09:46:00,70.4,70.3,29.79,SE,145,5.8,9.6,100,0.00,,,0.02,VWS V13.01,2013-06-26 14:46:00,
2013-06-26 09:51:00,70.7,70.7,29.79,SSE,160,7.1,8.9,100,0.00,,,0.02,VWS V13.01,2013-06-26 14:51:00,
2013-06-26 09:56:00,70.9,70.8,29.78,South,176,10.8,13.9,100,0.00,,,0.02,VWS V13.01,2013-06-26 14:56:00,
2013-06-26 10:01:00,71.6,71.4,29.78,SSW,197,9.3,10.7,99,0.00,,,0.02,VWS V13.01,2013-06-26 15:01:00,
2013-06-26 10:06:00,72.0,71.8,29.81,WNW,294,5.2,5.2,99,0.00,,,0.02,VWS V13.01,2013-06-26 15:06:00,
2013-06-26 10:11:00,72.3,72.2,29.82,WNW,298,8.7,9.3,100,0.00,,,0.02,VWS V13.01,2013-06-26 15:11:00,
2013-06-26 10:16:00,72.7,72.4,29.82,NW,304,9.6,11.6,99,0.00,,,0.02,VWS V13.01,2013-06-26 15:16:00,
2013-06-26 10:21:00,72.8,72.4,29.82,WNW,298,5.4,8.0,99,0.00,,,0.02,VWS V13.01,2013-06-26 15:21:00,
2013-06-26 10:26:00,73.4,72.9,29.82,WSW,249,3.9,6.0,98,0.00,,,0.02,VWS V13.01,2013-06-26 15:26:00,
2013-06-26 10:31:00,73.5,72.9,29.81,SSW,210,3.6,4.7,98,0.00,,,0.02,VWS V13.01,2013-06-26 15:31:00,
2013-06-26 10:36:00,74.1,73.5,29.80,South,190,5.7,7.8,98,0.00,,,0.02,VWS V13.01,2013-06-26 15:36:00,
2013-06-26 10:41:00,74.7,74.0,29.80,WSW,252,5.5,5.8,98,0.00,,,0.02,VWS V13.01,2013-06-26 15:41:00,
2013-06-26 10:46:00,75.3,74.4,29.81,SSW,202,6.5,8.5,97,0.00,,,0.02,VWS V13.01,2013-06-26 15:46:00,
2013-06-26 10:51:00,76.3,74.1,29.80,South,186,8.3,11.6,93,0.00,,,0.02,VWS V13.01,2013-06-26 15:51:00,
2013-06-26 10:56:00,76.4,73.7,29.80,SSW,211,11.3,11.8,91,0.00,,,0.02,VWS V13.01,2013-06-26 15:56:00,
2013-06-26 11:01:00,76.4,73.8,29.80,SSW,205,7.9,9.5,92,0.00,,,0.02,VWS V13.01,2013-06-26 16:01:00,
2013-06-26 11:06:00,76.6,74.3,29.80,SW,217,5.6,7.8,93,0.00,,,0.02,VWS V13.01,2013-06-26 16:06:00,
2013-06-26 11:11:00,76.9,74.1,29.80,South,181,9.9,13.0,91,0.00,,,0.02,VWS V13.01,2013-06-26 16:11:00,
2013-06-26 11:16:00,77.3,74.5,29.79,South,184,7.6,12.5,91,0.00,,,0.02,VWS V13.01,2013-06-26 16:16:00,
2013-06-26 11:21:00,77.3,75.0,29.79,SSW,193,8.3,12.4,93,0.00,,,0.02,VWS V13.01,2013-06-26 16:21:00,
2013-06-26 11:26:00,77.3,74.6,29.79,SSW,194,10.3,13.9,91,0.00,,,0.02,VWS V13.01,2013-06-26 16:26:00,
2013-06-26 11:31:00,78.1,75.9,29.80,South,180,12.9,16.3,93,0.00,,,0.02,VWS V13.01,2013-06-26 16:31:00,
2013-06-26 11:36:00,78.4,76.1,29.80,South,176,8.4,12.2,92,0.00,,,0.02,VWS V13.01,2013-06-26 16:36:00,
2013-06-26 11:41:00,78.4,74.8,29.80,SSW,200,7.8,9.6,89,0.00,,,0.02,VWS V13.01,2013-06-26 16:41:00,
2013-06-26 11:46:00,79.0,72.3,29.81,SSE,159,10.3,12.9,80,0.00,,,0.02,VWS V13.01,2013-06-26 16:46:00,
2013-06-26 11:51:00,79.3,71.9,29.80,South,184,11.5,15.0,78,0.00,,,0.02,VWS V13.01,2013-06-26 16:51:00,
2013-06-26 11:56:00,79.7,70.6,29.80,SSW,193,11.3,15.8,74,0.00,,,0.02,VWS V13.01,2013-06-26 16:56:00,
2013-06-26 12:01:00,79.7,70.0,29.80,SSW,200,9.6,14.5,72,0.00,,,0.02,VWS V13.01,2013-06-26 17:01:00,
2013-06-26 12:06:00,79.7,70.6,29.80,South,179,10.1,13.5,74,0.00,,,0.02,VWS V13.01,2013-06-26 17:06:00,
2013-06-26 12:11:00,80.3,71.1,29.80,South,191,15.0,17.3,74,0.00,,,0.02,VWS V13.01,2013-06-26 17:11:00,
2013-06-26 12:16:00,80.5,73.2,29.80,SSW,195,11.4,16.9,78,0.00,,,0.02,VWS V13.01,2013-06-26 17:16:00,
2013-06-26 12:21:00,80.5,74.2,29.80,South,187,17.5,17.9,81,0.00,,,0.02,VWS V13.01,2013-06-26 17:21:00,
2013-06-26 12:26:00,80.9,75.3,29.79,South,180,9.1,12.2,83,0.00,,,0.02,VWS V13.01,2013-06-26 17:26:00,
2013-06-26 12:31:00,81.2,74.4,29.80,SSW,198,10.6,20.3,80,0.00,,,0.02,VWS V13.01,2013-06-26 17:31:00,
2013-06-26 12:36:00,81.3,75.4,29.80,SSW,204,8.6,13.7,82,0.00,,,0.02,VWS V13.01,2013-06-26 17:36:00,
2013-06-26 12:41:00,81.0,75.6,29.80,SSW,204,10.6,12.7,84,0.00,,,0.02,VWS V13.01,2013-06-26 17:41:00,
2013-06-26 12:46:00,80.8,75.4,29.81,SSW,198,11.2,13.3,84,0.00,,,0.02,VWS V13.01,2013-06-26 17:46:00,
2013-06-26 12:51:00,80.4,76.0,29.80,SSW,195,8.0,14.2,87,0.00,,,0.02,VWS V13.01,2013-06-26 17:51:00,
2013-06-26 12:56:00,80.8,76.4,29.80,SSE,166,10.8,13.7,86,0.00,,,0.02,VWS V13.01,2013-06-26 17:56:00,
2013-06-26 13:01:00,80.4,76.5,29.80,South,191,10.1,12.7,88,0.00,,,0.02,VWS V13.01,2013-06-26 18:01:00,
2013-06-26 13:06:00,80.4,76.5,29.80,South,190,9.8,10.7,88,0.00,,,0.02,VWS V13.01,2013-06-26 18:06:00,
2013-06-26 13:11:00,80.9,76.5,29.79,South,173,13.1,13.2,86,0.00,,,0.02,VWS V13.01,2013-06-26 18:11:00,
2013-06-26 13:16:00,81.6,75.9,29.80,SSW,198,12.5,15.8,83,0.00,,,0.02,VWS V13.01,2013-06-26 18:16:00,
2013-06-26 13:21:00,81.8,75.3,29.80,South,176,11.9,14.6,81,0.00,,,0.02,VWS V13.01,2013-06-26 18:21:00,
2013-06-26 13:26:00,81.4,75.6,29.79,SW,214,5.5,11.7,82,0.00,,,0.02,VWS V13.01,2013-06-26 18:26:00,
2013-06-26 13:31:00,81.5,76.1,29.79,South,191,8.1,11.3,84,0.00,,,0.02,VWS V13.01,2013-06-26 18:31:00,
2013-06-26 13:36:00,81.6,75.7,29.79,SSW,201,5.8,9.0,82,0.00,,,0.02,VWS V13.01,2013-06-26 18:36:00,
2013-06-26 13:41:00,82.4,76.4,29.79,South,180,11.1,13.7,82,0.00,,,0.02,VWS V13.01,2013-06-26 18:41:00,
2013-06-26 13:46:00,81.8,76.1,29.78,SSW,200,13.0,15.9,83,0.00,,,0.02,VWS V13.01,2013-06-26 18:46:00,
2013-06-26 13:51:00,81.3,76.1,29.77,SSW,194,15.9,16.8,84,0.00,,,0.02,VWS V13.01,2013-06-26 18:51:00,
2013-06-26 13:56:00,81.3,76.9,29.78,South,179,13.6,16.7,86,0.00,,,0.02,VWS V13.01,2013-06-26 18:56:00,
2013-06-26 14:01:00,81.9,76.1,29.77,SSW,197,13.6,15.6,83,0.00,,,0.02,VWS V13.01,2013-06-26 19:01:00,
2013-06-26 14:06:00,82.2,76.2,29.77,SSE,158,10.5,11.6,82,0.00,,,0.02,VWS V13.01,2013-06-26 19:06:00,
2013-06-26 14:11:00,82.5,76.8,29.77,South,190,11.2,13.3,83,0.00,,,0.02,VWS V13.01,2013-06-26 19:11:00,
2013-06-26 14:16:00,83.1,76.4,29.77,SSW,195,9.4,14.9,80,0.00,,,0.02,VWS V13.01,2013-06-26 19:16:00,
2013-06-26 14:21:00,82.4,75.7,29.77,South,184,8.8,13.3,80,0.00,,,0.02,VWS V13.01,2013-06-26 19:21:00,
2013-06-26 14:26:00,82.5,75.9,29.76,SSW,198,13.4,19.6,80,0.00,,,0.02,VWS V13.01,2013-06-26 19:26:00,
2013-06-26 14:31:00,82.9,76.9,29.77,SSE,162,11.2,13.9,82,0.00,,,0.02,VWS V13.01,2013-06-26 19:31:00,
2013-06-26 14:36:00,82.4,76.7,29.77,South,173,7.7,13.2,83,0.00,,,0.02,VWS V13.01,2013-06-26 19:36:00,
2013-06-26 14:41:00,82.8,76.7,29.77,SW,217,11.2,12.9,82,0.00,,,0.02,VWS V13.01,2013-06-26 19:41:00,
2013-06-26 14:46:00,83.4,77.0,29.78,WSW,240,7.8,10.6,81,0.00,,,0.02,VWS V13.01,2013-06-26 19:46:00,
2013-06-26 14:51:00,83.1,76.5,29.78,SSW,211,8.1,10.1,81,0.00,,,0.02,VWS V13.01,2013-06-26 19:51:00,
2013-06-26 14:56:00,83.4,76.7,29.79,WSW,239,7.9,11.4,80,0.00,,,0.02,VWS V13.01,2013-06-26 19:56:00,
2013-06-26 15:01:00,83.1,76.4,29.78,South,183,7.5,11.7,80,0.00,,,0.02,VWS V13.01,2013-06-26 20:01:00,
2013-06-26 15:06:00,83.2,77.2,29.78,SSW,202,6.1,6.3,82,0.00,,,0.02,VWS V13.01,2013-06-26 20:06:00,
2013-06-26 15:11:00,83.2,76.7,29.78,SW,235,10.6,12.1,81,0.00,,,0.02,VWS V13.01,2013-06-26 20:11:00,
2013-06-26 15:16:00,83.4,76.1,29.79,West,262,8.0,12.3,79,0.00,,,0.02,VWS V13.01,2013-06-26 20:16:00,
2013-06-26 15:21:00,83.6,77.1,29.79,WSW,239,6.7,8.7,81,0.00,,,0.02,VWS V13.01,2013-06-26 20:21:00,
2013-06-26 15:26:00,83.4,77.0,29.78,SW,214,8.0,10.0,81,0.00,,,0.02,VWS V13.01,2013-06-26 20:26:00,
2013-06-26 15:31:00,83.8,76.7,29.78,SW,214,9.3,9.3,79,0.00,,,0.02,VWS V13.01,2013-06-26 20:31:00,
2013-06-26 15:36:00,83.4,78.1,29.78,WSW,239,7.0,7.9,84,0.00,,,0.02,VWS V13.01,2013-06-26 20:36:00,
2013-06-26 15:41:00,83.5,77.5,29.77,West,260,10.0,10.1,82,0.00,,,0.02,VWS V13.01,2013-06-26 20:41:00,
2013-06-26 15:46:00,82.9,77.2,29.77,West,266,5.9,7.1,83,0.00,,,0.02,VWS V13.01,2013-06-26 20:46:00,
2013-06-26 15:51:00,83.4,77.6,29.76,West,274,8.3,10.7,83,0.00,,,0.02,VWS V13.01,2013-06-26 20:51:00,
2013-06-26 15:56:00,83.5,77.9,29.76,WNW,285,8.5,9.7,83,0.00,,,0.02,VWS V13.01,2013-06-26 20:56:00,
2013-06-26 16:01:00,83.3,77.8,29.76,WSW,257,5.9,8.7,84,0.00,,,0.02,VWS V13.01,2013-06-26 21:01:00,
2013-06-26 16:06:00,83.4,77.5,29.76,WNW,288,3.4,6.5,82,0.00,,,0.02,VWS V13.01,2013-06-26 21:06:00,
2013-06-26 16:11:00,83.2,77.1,29.76,WSW,248,6.5,8.5,82,0.00,,,0.02,VWS V13.01,2013-06-26 21:11:00,
2013-06-26 16:16:00,83.3,77.1,29.76,West,271,8.1,8.1,82,0.00,,,0.02,VWS V13.01,2013-06-26 21:16:00,
2013-06-26 16:21:00,83.5,76.6,29.76,West,266,5.2,10.8,80,0.00,,,0.02,VWS V13.01,2013-06-26 21:21:00,
2013-06-26 16:26:00,83.6,76.8,29.76,West,267,8.4,8.4,80,0.00,,,0.02,VWS V13.01,2013-06-26 21:26:00,
2013-06-26 16:31:00,83.5,76.3,29.76,West,269,7.0,8.1,79,0.00,,,0.02,VWS V13.01,2013-06-26 21:31:00,
2013-06-26 16:36:00,83.5,76.5,29.76,West,263,7.7,7.7,80,0.00,,,0.02,VWS V13.01,2013-06-26 21:36:00,
2013-06-26 16:41:00,83.1,76.4,29.76,West,267,5.8,6.7,80,0.00,,,0.02,VWS V13.01,2013-06-26 21:41:00,
2013-06-26 16:46:00,83.1,77.0,29.76,West,267,5.7,7.0,82,0.00,,,0.02,VWS V13.01,2013-06-26 21:46:00,
2013-06-26 16:51:00,83.0,76.6,29.76,West,277,9.1,11.4,81,0.00,,,0.02,VWS V13.01,2013-06-26 21:51:00,
2013-06-26 16:56:00,83.1,75.7,29.76,West,280,5.8,6.0,78,0.00,,,0.02,VWS V13.01,2013-06-26 21:56:00,
2013-06-26 17:01:00,83.4,76.0,29.76,WSW,246,8.6,9.7,78,0.00,,,0.02,VWS V13.01,2013-06-26 22:01:00,
2013-06-26 17:06:00,83.6,76.4,29.76,WSW,256,5.3,7.7,79,0.00,,,0.02,VWS V13.01,2013-06-26 22:06:00,
2013-06-26 17:11:00,83.8,76.2,29.76,WSW,252,5.4,6.2,78,0.00,,,0.02,VWS V13.01,2013-06-26 22:11:00,
2013-06-26 17:16:00,84.0,76.1,29.75,WNW,287,7.0,9.3,77,0.00,,,0.02,VWS V13.01,2013-06-26 22:16:00,
2013-06-26 17:21:00,84.0,75.8,29.75,WSW,256,7.5,7.5,76,0.00,,,0.02,VWS V13.01,2013-06-26 22:21:00,
2013-06-26 17:26:00,84.3,75.7,29.75,WNW,288,5.3,5.7,75,0.00,,,0.02,VWS V13.01,2013-06-26 22:26:00,
2013-06-26 17:31:00,83.8,75.6,29.75,WSW,243,6.5,6.8,76,0.00,,,0.02,VWS V13.01,2013-06-26 22:31:00,
2013-06-26 17:36:00,84.6,76.4,29.74,SW,232,7.4,8.3,76,0.00,,,0.02,VWS V13.01,2013-06-26 22:36:00,
2013-06-26 17:41:00,84.0,76.2,29.75,WSW,240,10.9,11.5,77,0.00,,,0.02,VWS V13.01,2013-06-26 22:41:00,
2013-06-26 17:46:00,84.4,76.2,29.75,West,264,7.1,9.8,76,0.00,,,0.02,VWS V13.01,2013-06-26 22:46:00,
2013-06-26 17:51:00,84.4,76.4,29.76,West,276,8.6,9.0,77,0.00,,,0.02,VWS V13.01,2013-06-26 22:51:00,
2013-06-26 17:56:00,84.2,76.1,29.76,NW,307,6.4,6.4,77,0.00,,,0.02,VWS V13.01,2013-06-26 22:56:00,
2013-06-26 18:01:00,83.7,76.2,29.76,West,276,7.2,8.0,78,0.00,,,0.02,VWS V13.01,2013-06-26 23:01:00,
2013-06-26 18:06:00,84.3,77.1,29.76,West,266,6.5,6.5,79,0.00,,,0.02,VWS V13.01,2013-06-26 23:06:00,
2013-06-26 18:11:00,83.9,76.8,29.76,West,278,4.7,5.1,79,0.00,,,0.02,VWS V13.01,2013-06-26 23:11:00,
2013-06-26 18:16:00,84.1,77.0,29.76,NW,305,6.2,6.2,79,0.00,,,0.02,VWS V13.01,2013-06-26 23:16:00,
2013-06-26 18:21:00,84.2,77.6,29.76,WNW,297,3.7,4.2,80,0.00,,,0.02,VWS V13.01,2013-06-26 23:21:00,
2013-06-26 18:26:00,83.9,77.3,29.77,WNW,295,5.9,7.0,81,0.00,,,0.02,VWS V13.01,2013-06-26 23:26:00,
2013-06-26 18:31:00,83.6,77.2,29.76,WNW,297,5.0,5.6,81,0.00,,,0.02,VWS V13.01,2013-06-26 23:31:00,
2013-06-26 18:36:00,83.7,77.8,29.77,WSW,256,5.0,7.1,83,0.00,,,0.02,VWS V13.01,2013-06-26 23:36:00,
2013-06-26 18:41:00,83.3,77.5,29.77,WNW,285,6.0,6.0,83,0.00,,,0.02,VWS V13.01,2013-06-26 23:41:00,
2013-06-26 18:46:00,83.3,77.8,29.76,WNW,291,5.0,7.0,84,0.00,,,0.02,VWS V13.01,2013-06-26 23:46:00,
2013-06-26 18:51:00,82.7,77.4,29.77,WNW,288,4.7,5.9,84,0.00,,,0.02,VWS V13.01,2013-06-26 23:51:00,
2013-06-26 18:56:00,82.8,77.6,29.76,WNW,301,2.9,5.6,84,0.00,,,0.02,VWS V13.01,2013-06-26 23:56:00,
2013-06-26 19:01:00,82.5,77.6,29.76,West,281,5.2,7.3,85,0.00,,,0.02,VWS V13.01,2013-06-27 00:01:00,
2013-06-26 19:06:00,82.6,77.8,29.76,West,262,2.4,4.8,86,0.00,,,0.02,VWS V13.01,2013-06-27 00:06:00,
2013-06-26 19:11:00,82.8,78.1,29.76,WSW,255,5.3,5.8,86,0.00,,,0.02,VWS V13.01,2013-06-27 00:11:00,
2013-06-26 19:16:00,82.5,77.8,29.76,NW,307,4.5,5.6,86,0.00,,,0.02,VWS V13.01,2013-06-27 00:16:00,
2013-06-26 19:21:00,82.5,77.8,29.76,West,273,4.9,6.4,86,0.00,,,0.02,VWS V13.01,2013-06-27 00:21:00,
2013-06-26 19:26:00,82.4,77.8,29.76,West,262,6.4,6.4,86,0.00,,,0.02,VWS V13.01,2013-06-27 00:26:00,
2013-06-26 19:31:00,82.5,78.3,29.76,West,267,3.3,4.5,87,0.00,,,0.02,VWS V13.01,2013-06-27 00:31:00,
2013-06-26 19:36:00,81.7,77.9,29.76,WNW,284,2.8,3.0,88,0.00,,,0.02,VWS V13.01,2013-06-27 00:36:00,
2013-06-26 19:41:00,82.0,78.4,29.76,WNW,287,3.2,4.1,89,0.00,,,0.02,VWS V13.01,2013-06-27 00:41:00,
2013-06-26 19:46:00,81.4,78.2,29.76,West,267,3.9,4.6,90,0.00,,,0.02,VWS V13.01,2013-06-27 00:46:00,
2013-06-26 19:51:00,81.5,78.5,29.76,WNW,287,3.1,3.1,91,0.00,,,0.02,VWS V13.01,2013-06-27 00:51:00,
2013-06-26 19:56:00,81.1,78.7,29.76,West,271,3.6,4.5,92,0.00,,,0.02,VWS V13.01,2013-06-27 00:56:00,
2013-06-26 20:01:00,81.3,79.1,29.76,West,262,2.4,4.1,93,0.00,,,0.02,VWS V13.01,2013-06-27 01:01:00,
2013-06-26 20:06:00,80.7,79.0,29.76,West,278,3.2,3.5,95,0.00,,,0.02,VWS V13.01,2013-06-27 01:06:00,
2013-06-26 20:11:00,80.7,79.2,29.75,WNW,290,3.0,3.1,95,0.00,,,0.02,VWS V13.01,2013-06-27 01:11:00,
2013-06-26 20:16:00,80.4,78.9,29.75,WSW,256,3.0,3.0,95,0.00,,,0.02,VWS V13.01,2013-06-27 01:16:00,
2013-06-26 20:21:00,80.6,79.2,29.76,WSW,257,2.2,2.9,95,0.00,,,0.02,VWS V13.01,2013-06-27 01:21:00,
2013-06-26 20:26:00,80.2,78.9,29.76,West,277,2.9,3.9,96,0.00,,,0.02,VWS V13.01,2013-06-27 01:26:00,
2013-06-26 20:31:00,79.8,78.6,29.76,WNW,297,3.0,3.3,96,0.00,,,0.02,VWS V13.01,2013-06-27 01:31:00,
2013-06-26 20:36:00,79.7,78.5,29.76,NW,314,1.7,1.9,96,0.00,,,0.02,VWS V13.01,2013-06-27 01:36:00,
2013-06-26 20:41:00,80.0,78.8,29.76,West,259,0.0,0.7,96,0.00,,,0.02,VWS V13.01,2013-06-27 01:41:00,
2013-06-26 20:46:00,79.3,78.1,29.76,West,259,0.0,0.0,96,0.00,,,0.02,VWS V13.01,2013-06-27 01:46:00,
2013-06-26 20:51:00,79.7,78.6,29.76,NW,316,2.5,2.5,96,0.00,,,0.02,VWS V13.01,2013-06-27 01:51:00,
2013-06-26 20:56:00,79.7,78.6,29.76,NNW,332,3.0,3.9,96,0.00,,,0.02,VWS V13.01,2013-06-27 01:56:00,
2013-06-26 21:01:00,79.3,78.2,29.77,WNW,302,3.4,4.2,96,0.00,,,0.02,VWS V13.01,2013-06-27 02:01:00,
2013-06-26 21:06:00,79.3,78.2,29.77,NW,307,5.7,5.7,97,0.00,,,0.02,VWS V13.01,2013-06-27 02:06:00,
2013-06-26 21:11:00,79.3,78.2,29.77,WNW,298,4.9,5.3,97,0.00,,,0.02,VWS V13.01,2013-06-27 02:11:00,
2013-06-26 21:16:00,79.2,78.2,29.77,WNW,284,4.2,4.5,97,0.00,,,0.02,VWS V13.01,2013-06-27 02:16:00,
2013-06-26 21:21:00,78.7,77.8,29.78,WSW,240,2.4,2.5,97,0.00,,,0.02,VWS V13.01,2013-06-27 02:21:00,
2013-06-26 21:26:00,78.4,77.6,29.78,West,266,2.0,2.4,97,0.00,,,0.02,VWS V13.01,2013-06-27 02:26:00,
2013-06-26 21:31:00,78.3,77.6,29.78,West,271,2.6,2.7,98,0.00,,,0.02,VWS V13.01,2013-06-27 02:31:00,
2013-06-26 21:36:00,78.5,77.8,29.78,West,281,3.5,3.6,98,0.00,,,0.02,VWS V13.01,2013-06-27 02:36:00,
2013-06-26 21:41:00,77.9,77.3,29.78,WNW,294,3.5,3.6,98,0.00,,,0.02,VWS V13.01,2013-06-27 02:41:00,
2013-06-26 21:46:00,77.9,77.4,29.78,WNW,290,3.3,3.4,98,0.00,,,0.02,VWS V13.01,2013-06-27 02:46:00,
2013-06-26 21:51:00,77.8,77.4,29.79,West,271,3.0,3.2,99,0.00,,,0.02,VWS V13.01,2013-06-27 02:51:00,
2013-06-26 21:56:00,77.4,77.1,29.79,West,273,2.0,2.5,99,0.00,,,0.02,VWS V13.01,2013-06-27 02:56:00,
2013-06-26 22:01:00,76.8,76.6,29.79,West,264,1.7,1.8,99,0.00,,,0.02,VWS V13.01,2013-06-27 03:01:00,
2013-06-26 22:06:00,77.2,77.0,29.79,SW,222,1.5,1.6,99,0.00,,,0.02,VWS V13.01,2013-06-27 03:06:00,
2013-06-26 22:11:00,77.1,77.0,29.79,SW,224,0.0,0.0,100,0.00,,,0.02,VWS V13.01,2013-06-27 03:11:00,
2013-06-26 22:16:00,76.9,76.8,29.79,SW,224,0.0,0.0,100,0.00,,,0.02,VWS V13.01,2013-06-27 03:16:00,
2013-06-26 22:21:00,77.0,76.9,29.79,SW,224,0.0,0.0,100,0.00,,,0.02,VWS V13.01,2013-06-27 03:21:00,
2013-06-26 22:26:00,76.7,76.6,29.79,SW,224,0.0,0.0,100,0.00,,,0.02,VWS V13.01,2013-06-27 03:26:00,
2013-06-26 22:31:00,76.6,76.6,29.79,SW,224,0.0,0.0,100,0.00,,,0.02,VWS V13.01,2013-06-27 03:31:00,
2013-06-26 22:36:00,76.7,76.7,29.79,SW,224,0.0,0.0,100,0.00,,,0.02,VWS V13.01,2013-06-27 03:36:00,
2013-06-26 22:41:00,76.6,76.6,29.80,SW,224,0.0,0.0,100,0.00,,,0.02,VWS V13.01,2013-06-27 03:41:00,
2013-06-26 22:46:00,76.6,76.6,29.80,SW,224,0.0,0.0,100,0.00,,,0.02,VWS V13.01,2013-06-27 03:46:00,
2013-06-26 22:51:00,76.4,76.4,29.80,SE,138,0.0,0.0,100,0.00,,,0.02,VWS V13.01,2013-06-27 03:51:00,
2013-06-26 22:56:00,76.3,76.3,29.80,SE,138,0.0,0.0,100,0.00,,,0.02,VWS V13.01,2013-06-27 03:56:00,
2013-06-26 23:01:00,76.2,76.2,29.80,SE,138,0.0,0.0,100,0.00,,,0.02,VWS V13.01,2013-06-27 04:01:00,
2013-06-26 23:02:00,76.4,76.4,29.80,SE,138,0.0,0.0,100,0.00,,,0.02,VWS V13.01,2013-06-27 04:02:00,
2013-06-26 23:07:00,76.2,76.2,29.80,West,263,3.9,4.5,100,0.00,,,0.02,VWS V13.01,2013-06-27 04:07:00,
2013-06-26 23:12:00,75.9,75.9,29.81,West,271,4.9,5.4,100,0.00,,,0.02,VWS V13.01,2013-06-27 04:12:00,
2013-06-26 23:17:00,76.0,76.0,29.81,West,266,4.7,5.0,100,0.00,,,0.02,VWS V13.01,2013-06-27 04:17:00,
2013-06-26 23:22:00,75.6,75.6,29.81,West,277,3.8,4.5,100,0.00,,,0.02,VWS V13.01,2013-06-27 04:22:00,
2013-06-26 23:27:00,75.9,75.9,29.81,West,280,3.0,3.5,100,0.00,,,0.02,VWS V13.01,2013-06-27 04:27:00,
2013-06-26 23:32:00,75.4,75.4,29.82,West,274,5.1,5.2,100,0.00,,,0.02,VWS V13.01,2013-06-27 04:32:00,
2013-06-26 23:37:00,75.2,75.2,29.82,West,267,5.7,5.7,100,0.00,,,0.02,VWS V13.01,2013-06-27 04:37:00,
2013-06-26 23:42:00,75.1,75.1,29.81,West,273,3.9,4.3,100,0.00,,,0.02,VWS V13.01,2013-06-27 04:42:00,
2013-06-26 23:47:00,75.1,75.1,29.81,West,269,3.5,4.3,100,0.00,,,0.02,VWS V13.01,2013-06-27 04:47:00,
2013-06-26 23:52:00,75.3,75.3,29.81,West,266,4.1,4.3,100,0.00,,,0.02,VWS V13.01,2013-06-27 04:52:00,
2013-06-26 23:57:00,74.7,74.7,29.81,West,277,4.8,4.9,100,0.00,,,0.02,VWS V13.01,2013-06-27 04:57:00,